Time,TemperatureF,DewpointF,PressureIn,WindDirection,WindDirectionDegrees,WindSpeedMPH,WindSpeedGustMPH,Humidity,HourlyPrecipIn,Conditions,Clouds,dailyrainin,SoftwareType,DateUTC
2013-04-19 00:00:00,30.7,27.3,29.49,NNE,22,0.0,0.0,87,0.00,CLR,,0.00,WeatherDisplay:10.37,2013-04-19 05:00:00,
2013-04-19 00:05:00,30.7,27.3,29.48,NNE,22,0.0,0.0,87,0.00,CLR,,0.00,WeatherDisplay:10.37,2013-04-19 05:05:00,
2013-04-19 00:10:00,30.7,27.3,29.48,NNE,22,0.0,0.0,87,0.00,CLR,,0.00,WeatherDisplay:10.37,2013-04-19 05:10:00,
2013-04-19 00:15:00,30.7,27.3,29.48,NNE,22,0.0,0.0,87,0.00,CLR,,0.00,WeatherDisplay:10.37,2013-04-19 05:15:00,
2013-04-19 00:20:00,30.7,27.3,29.48,NNE,22,0.0,0.0,87,0.00,CLR,,0.00,WeatherDisplay:10.37,2013-04-19 05:20:00,
2013-04-19 00:25:00,30.7,27.3,29.48,NNE,22,0.0,0.0,87,0.00,CLR,,0.00,WeatherDisplay:10.37,2013-04-19 05:25:00,
2013-04-19 00:30:00,30.7,27.3,29.48,NNE,22,0.0,0.0,87,0.00,CLR,,0.00,WeatherDisplay:10.37,2013-04-19 05:30:00,
2013-04-19 00:35:00,30.7,27.3,29.48,NNE,22,0.0,0.0,87,0.00,CLR,,0.00,WeatherDisplay:10.37,2013-04-19 05:35:00,
2013-04-19 00:40:00,30.7,27.3,29.48,NNE,22,0.0,0.0,87,0.00,CLR,,0.00,WeatherDisplay:10.37,2013-04-19 05:40:00,
2013-04-19 00:45:00,30.7,27.3,29.48,NNE,22,0.0,0.0,87,0.00,CLR,,0.00,WeatherDisplay:10.37,2013-04-19 05:45:00,
2013-04-19 00:50:00,30.7,27.3,29.48,NNE,22,0.0,0.0,87,0.00,CLR,,0.00,WeatherDisplay:10.37,2013-04-19 05:50:00,
2013-04-19 00:55:00,30.7,27.3,29.48,NNE,22,0.0,0.0,87,0.00,CLR,,0.00,WeatherDisplay:10.37,2013-04-19 05:55:00,
2013-04-19 01:00:00,30.7,27.3,29.48,NNE,22,0.0,0.0,87,0.00,CLR,,0.00,WeatherDisplay:10.37,2013-04-19 06:00:00,
2013-04-19 01:05:00,30.7,27.3,29.48,NNE,22,0.0,0.0,87,0.00,CLR,,0.00,WeatherDisplay:10.37,2013-04-19 06:05:00,
2013-04-19 01:10:00,30.7,27.3,29.48,NNE,22,0.0,0.0,87,0.00,CLR,,0.00,WeatherDisplay:10.37,2013-04-19 06:10:00,
2013-04-19 01:15:00,30.7,27.3,29.48,NNE,22,0.0,0.0,87,0.00,CLR,,0.00,WeatherDisplay:10.37,2013-04-19 06:15:00,
2013-04-19 01:20:00,30.7,27.3,29.48,NNE,22,0.0,0.0,87,0.00,CLR,,0.00,WeatherDisplay:10.37,2013-04-19 06:20:00,
2013-04-19 01:25:00,30.7,27.3,29.48,NNE,22,0.0,0.0,87,0.00,CLR,,0.00,WeatherDisplay:10.37,2013-04-19 06:25:00,
2013-04-19 01:30:00,30.7,27.3,29.48,NNE,22,0.0,0.0,87,0.00,CLR,,0.00,WeatherDisplay:10.37,2013-04-19 06:30:00,
2013-04-19 01:35:00,30.7,27.3,29.48,NNE,22,0.0,0.0,87,0.00,CLR,,0.00,WeatherDisplay:10.37,2013-04-19 06:35:00,
2013-04-19 01:40:00,30.7,27.3,29.48,NNE,22,0.0,0.0,87,0.00,CLR,,0.00,WeatherDisplay:10.37,2013-04-19 06:40:00,
2013-04-19 01:45:00,30.6,27.2,29.48,NNE,22,0.0,0.0,87,0.00,CLR,,0.00,WeatherDisplay:10.37,2013-04-19 06:45:00,
2013-04-19 01:50:00,30.6,27.2,29.48,NNE,22,0.0,0.0,87,0.00,CLR,,0.00,WeatherDisplay:10.37,2013-04-19 06:50:00,
2013-04-19 01:55:00,30.6,27.2,29.48,NNE,22,0.0,0.0,87,0.00,CLR,,0.00,WeatherDisplay:10.37,2013-04-19 06:55:00,
2013-04-19 02:00:00,30.6,27.2,29.47,NNE,22,0.0,0.0,87,0.00,CLR,,0.00,WeatherDisplay:10.37,2013-04-19 07:00:00,
2013-04-19 02:05:00,30.6,27.2,29.48,NNE,22,0.0,0.0,87,0.00,CLR,,0.00,WeatherDisplay:10.37,2013-04-19 07:05:00,
2013-04-19 02:15:00,30.6,27.1,29.47,NNE,22,0.0,0.0,87,0.00,CLR,,0.00,WeatherDisplay:10.37,2013-04-19 07:15:00,
2013-04-19 02:20:00,30.4,27.0,29.47,NNE,22,0.0,0.0,87,0.00,CLR,,0.00,WeatherDisplay:10.37,2013-04-19 07:20:00,
2013-04-19 02:25:00,30.4,27.0,29.47,NNE,22,0.0,0.0,87,0.00,CLR,,0.00,WeatherDisplay:10.37,2013-04-19 07:25:00,
2013-04-19 02:30:00,30.4,27.0,29.47,NNE,22,0.0,0.0,87,0.00,CLR,,0.00,WeatherDisplay:10.37,2013-04-19 07:30:00,
2013-04-19 02:35:00,30.4,27.0,29.47,NNE,22,0.0,0.0,87,0.00,CLR,,0.00,WeatherDisplay:10.37,2013-04-19 07:35:00,
2013-04-19 02:40:00,30.4,27.0,29.47,NNE,22,0.0,0.0,87,0.00,CLR,,0.00,WeatherDisplay:10.37,2013-04-19 07:40:00,
2013-04-19 02:45:00,30.2,26.8,29.47,NNE,22,0.0,0.0,87,0.00,CLR,,0.00,WeatherDisplay:10.37,2013-04-19 07:45:00,
2013-04-19 02:50:00,30.2,26.8,29.47,NNE,22,0.0,0.0,87,0.00,CLR,,0.00,WeatherDisplay:10.37,2013-04-19 07:50:00,
2013-04-19 02:55:00,30.0,26.6,29.47,NNE,22,0.0,0.0,87,0.00,CLR,,0.00,WeatherDisplay:10.37,2013-04-19 07:55:00,
2013-04-19 03:00:00,30.0,26.6,29.48,NNE,22,0.0,0.0,87,0.00,CLR,,0.00,WeatherDisplay:10.37,2013-04-19 08:00:00,
2013-04-19 03:05:00,30.0,26.6,29.47,NNE,22,0.0,0.0,87,0.00,CLR,,0.00,WeatherDisplay:10.37,2013-04-19 08:05:00,
2013-04-19 03:10:00,30.0,26.6,29.47,NNE,22,0.0,0.0,87,0.00,CLR,,0.00,WeatherDisplay:10.37,2013-04-19 08:10:00,
2013-04-19 03:15:00,29.9,26.2,29.48,NNE,22,0.0,0.0,86,0.00,CLR,,0.00,WeatherDisplay:10.37,2013-04-19 08:15:00,
2013-04-19 03:20:00,29.8,26.2,29.48,NNE,22,0.0,0.0,86,0.00,CLR,,0.00,WeatherDisplay:10.37,2013-04-19 08:20:00,
2013-04-19 03:25:00,29.8,26.2,29.48,NNE,22,0.0,0.0,86,0.00,CLR,,0.00,WeatherDisplay:10.37,2013-04-19 08:25:00,
2013-04-19 03:30:00,29.8,26.2,29.48,NNE,22,0.0,0.0,86,0.00,CLR,,0.00,WeatherDisplay:10.37,2013-04-19 08:30:00,
2013-04-19 03:35:00,29.7,26.0,29.48,NNE,22,0.0,0.0,86,0.00,CLR,,0.00,WeatherDisplay:10.37,2013-04-19 08:35:00,
2013-04-19 03:40:00,29.7,26.0,29.48,NNE,22,0.0,0.0,86,0.00,CLR,,0.00,WeatherDisplay:10.37,2013-04-19 08:40:00,
2013-04-19 03:45:00,29.7,26.0,29.48,NNE,22,0.0,0.0,86,0.00,CLR,,0.00,WeatherDisplay:10.37,2013-04-19 08:45:00,
2013-04-19 03:50:00,29.5,25.8,29.48,NNE,22,0.0,0.0,86,0.00,CLR,,0.00,WeatherDisplay:10.37,2013-04-19 08:50:00,
2013-04-19 03:55:00,29.5,25.8,29.48,NNE,22,0.0,0.0,86,0.00,CLR,,0.00,WeatherDisplay:10.37,2013-04-19 08:55:00,
2013-04-19 04:00:00,29.5,25.8,29.48,NNE,22,0.0,0.0,86,0.00,CLR,,0.00,WeatherDisplay:10.37,2013-04-19 09:00:00,
2013-04-19 04:05:00,29.5,25.8,29.48,NNE,22,0.0,0.0,86,0.00,CLR,,0.00,WeatherDisplay:10.37,2013-04-19 09:05:00,
2013-04-19 04:10:00,29.5,25.8,29.48,NNE,22,0.0,0.0,86,0.00,CLR,,0.00,WeatherDisplay:10.37,2013-04-19 09:10:00,
2013-04-19 04:15:00,29.5,25.8,29.49,NNE,22,0.0,0.0,86,0.00,CLR,,0.00,WeatherDisplay:10.37,2013-04-19 09:15:00,
2013-04-19 04:20:00,29.5,25.8,29.49,NNE,22,0.0,0.0,86,0.00,CLR,,0.00,WeatherDisplay:10.37,2013-04-19 09:20:00,
2013-04-19 04:25:00,29.5,25.8,29.49,NNE,22,0.0,0.0,86,0.00,CLR,,0.00,WeatherDisplay:10.37,2013-04-19 09:25:00,
2013-04-19 04:30:00,29.3,25.6,29.49,NNE,22,0.0,0.0,86,0.00,CLR,,0.00,WeatherDisplay:10.37,2013-04-19 09:30:00,
2013-04-19 04:35:00,29.3,25.4,29.49,NNE,22,0.0,0.0,85,0.00,CLR,,0.00,WeatherDisplay:10.37,2013-04-19 09:35:00,
2013-04-19 04:40:00,29.3,25.4,29.49,NNE,22,0.0,0.0,85,0.00,CLR,,0.00,WeatherDisplay:10.37,2013-04-19 09:40:00,
2013-04-19 04:45:00,29.3,25.3,29.49,NNE,22,0.0,0.0,85,0.00,CLR,,0.00,WeatherDisplay:10.37,2013-04-19 09:45:00,
2013-04-19 04:50:00,29.1,25.2,29.49,NNE,22,0.0,0.0,85,0.00,CLR,,0.00,WeatherDisplay:10.37,2013-04-19 09:50:00,
2013-04-19 04:55:00,29.1,25.2,29.49,NNE,22,0.0,0.0,85,0.00,CLR,,0.00,WeatherDisplay:10.37,2013-04-19 09:55:00,
2013-04-19 05:00:00,29.1,25.2,29.49,NNE,22,0.0,0.0,85,0.00,CLR,,0.00,WeatherDisplay:10.37,2013-04-19 10:00:00,
2013-04-19 05:05:00,29.1,25.2,29.49,NNE,22,0.0,0.0,85,0.00,CLR,,0.00,WeatherDisplay:10.37,2013-04-19 10:05:00,
2013-04-19 05:10:00,28.9,25.0,29.49,NNE,22,0.0,0.0,85,0.00,CLR,,0.00,WeatherDisplay:10.37,2013-04-19 10:10:00,
2013-04-19 05:15:00,29.0,25.1,29.50,NNE,22,0.0,0.0,85,0.00,CLR,,0.00,WeatherDisplay:10.37,2013-04-19 10:15:00,
2013-04-19 05:20:00,28.9,25.0,29.50,NNE,22,0.0,0.0,85,0.00,CLR,,0.00,WeatherDisplay:10.37,2013-04-19 10:20:00,
2013-04-19 05:25:00,28.9,25.0,29.50,NNE,22,0.0,0.0,85,0.00,CLR,,0.00,WeatherDisplay:10.37,2013-04-19 10:25:00,
2013-04-19 05:30:00,28.9,25.0,29.50,NNE,22,0.0,0.0,85,0.00,CLR,,0.00,WeatherDisplay:10.37,2013-04-19 10:30:00,
2013-04-19 05:35:00,28.9,25.0,29.50,NNE,22,0.0,0.0,85,0.00,CLR,,0.00,WeatherDisplay:10.37,2013-04-19 10:35:00,
2013-04-19 05:40:00,28.9,25.0,29.51,NNE,22,0.0,0.0,85,0.00,CLR,,0.00,WeatherDisplay:10.37,2013-04-19 10:40:00,
2013-04-19 05:45:00,28.8,24.8,29.50,NNE,22,0.0,0.0,85,0.00,CLR,,0.00,WeatherDisplay:10.37,2013-04-19 10:45:00,
2013-04-19 05:50:00,28.8,24.8,29.51,NNE,22,0.0,0.0,85,0.00,CLR,,0.00,WeatherDisplay:10.37,2013-04-19 10:50:00,
2013-04-19 05:55:00,28.8,24.8,29.51,NNE,22,0.0,0.0,85,0.00,CLR,,0.00,WeatherDisplay:10.37,2013-04-19 10:55:00,
2013-04-19 06:00:00,28.6,24.6,29.51,NNE,22,0.0,0.0,85,0.00,CLR,,0.00,WeatherDisplay:10.37,2013-04-19 11:00:00,
2013-04-19 06:05:00,28.6,24.6,29.51,NNE,22,0.0,0.0,85,0.00,CLR,,0.00,WeatherDisplay:10.37,2013-04-19 11:05:00,
2013-04-19 06:10:00,28.5,24.6,29.51,NNE,22,0.0,0.0,85,0.00,CLR,,0.00,WeatherDisplay:10.37,2013-04-19 11:10:00,
2013-04-19 06:15:00,28.2,24.3,29.51,NNE,22,0.0,0.0,85,0.00,CLR,,0.00,WeatherDisplay:10.37,2013-04-19 11:15:00,
2013-04-19 06:20:00,28.0,23.8,29.52,NNE,22,0.0,0.0,84,0.00,CLR,,0.00,WeatherDisplay:10.37,2013-04-19 11:20:00,
2013-04-19 06:25:00,28.0,23.8,29.52,NNE,22,0.0,0.0,84,0.00,CLR,,0.00,WeatherDisplay:10.37,2013-04-19 11:25:00,
2013-04-19 06:30:00,28.0,23.8,29.53,NNE,22,0.0,0.0,84,0.00,CLR,,0.00,WeatherDisplay:10.37,2013-04-19 11:30:00,
2013-04-19 06:35:00,28.0,23.8,29.53,NNE,22,0.0,0.0,84,0.00,CLR,,0.00,WeatherDisplay:10.37,2013-04-19 11:35:00,
2013-04-19 06:40:00,28.0,24.1,29.53,NNE,22,0.0,0.0,85,0.00,CLR,,0.00,WeatherDisplay:10.37,2013-04-19 11:40:00,
2013-04-19 06:45:00,28.0,24.1,29.53,NNE,22,0.0,0.0,85,0.00,CLR,,0.00,WeatherDisplay:10.37,2013-04-19 11:45:00,
2013-04-19 06:50:00,28.2,24.3,29.54,NNE,22,0.0,0.0,85,0.00,CLR,,0.00,WeatherDisplay:10.37,2013-04-19 11:50:00,
2013-04-19 06:55:00,28.2,24.3,29.54,NNE,22,0.0,0.0,85,0.00,CLR,,0.00,WeatherDisplay:10.37,2013-04-19 11:55:00,
2013-04-19 07:00:00,28.5,24.5,29.54,NNE,22,0.0,0.0,85,0.00,CLR,,0.00,WeatherDisplay:10.37,2013-04-19 12:00:00,
2013-04-19 07:05:00,28.4,24.5,29.54,NNE,22,0.0,0.0,85,0.00,CLR,,0.00,WeatherDisplay:10.37,2013-04-19 12:05:00,
2013-04-19 07:10:00,28.6,24.4,29.54,NNE,22,0.0,0.0,84,0.00,CLR,,0.00,WeatherDisplay:10.37,2013-04-19 12:10:00,
2013-04-19 07:15:00,28.6,24.4,29.54,NNE,22,0.0,0.0,84,0.00,CLR,,0.00,WeatherDisplay:10.37,2013-04-19 12:15:00,
2013-04-19 07:20:00,28.6,24.4,29.54,NNE,22,0.0,0.0,84,0.00,CLR,,0.00,WeatherDisplay:10.37,2013-04-19 12:20:00,
2013-04-19 07:25:00,28.8,24.5,29.54,NNE,22,0.0,0.0,84,0.00,CLR,,0.00,WeatherDisplay:10.37,2013-04-19 12:25:00,
2013-04-19 07:30:00,28.9,24.4,29.54,NNE,22,0.0,0.0,83,0.00,CLR,,0.00,WeatherDisplay:10.37,2013-04-19 12:30:00,
2013-04-19 07:35:00,28.8,24.2,29.54,NNE,22,0.0,0.0,83,0.00,CLR,,0.00,WeatherDisplay:10.37,2013-04-19 12:35:00,
2013-04-19 07:40:00,28.9,24.4,29.55,NNE,22,0.0,0.0,83,0.00,CLR,,0.00,WeatherDisplay:10.37,2013-04-19 12:40:00,
2013-04-19 07:45:00,29.1,24.6,29.55,NNE,22,0.0,0.0,83,0.00,CLR,,0.00,WeatherDisplay:10.37,2013-04-19 12:45:00,
2013-04-19 07:50:00,29.1,24.6,29.55,NNE,22,0.0,0.0,83,0.00,CLR,,0.00,WeatherDisplay:10.37,2013-04-19 12:50:00,
2013-04-19 07:55:00,29.1,24.6,29.55,NNE,22,0.0,0.0,83,0.00,CLR,,0.00,WeatherDisplay:10.37,2013-04-19 12:55:00,
2013-04-19 08:00:00,29.1,24.6,29.55,NNE,22,0.0,0.0,83,0.00,CLR,,0.00,WeatherDisplay:10.37,2013-04-19 13:00:00,
2013-04-19 08:05:00,29.3,24.8,29.56,NNE,22,0.0,0.0,83,0.00,CLR,,0.00,WeatherDisplay:10.37,2013-04-19 13:05:00,
2013-04-19 08:10:00,29.3,24.5,29.56,NNE,22,0.0,0.0,82,0.00,CLR,,0.00,WeatherDisplay:10.37,2013-04-19 13:10:00,
2013-04-19 08:15:00,29.6,24.8,29.56,NNE,22,0.0,0.0,82,0.00,CLR,,0.00,WeatherDisplay:10.37,2013-04-19 13:15:00,
2013-04-19 08:20:00,29.8,25.0,29.56,NNE,22,0.0,0.0,82,0.00,CLR,,0.00,WeatherDisplay:10.37,2013-04-19 13:20:00,
2013-04-19 08:25:00,30.1,25.2,29.56,NNE,22,0.0,0.0,82,0.00,CLR,,0.00,WeatherDisplay:10.37,2013-04-19 13:25:00,
2013-04-19 08:30:00,30.4,25.6,29.56,NNE,22,0.0,0.0,82,0.00,CLR,,0.00,WeatherDisplay:10.37,2013-04-19 13:30:00,
2013-04-19 08:35:00,30.7,25.6,29.56,NNE,12,0.0,0.0,81,0.00,CLR,,0.00,WeatherDisplay:10.37,2013-04-19 13:35:00,
2013-04-19 08:40:00,30.9,25.5,29.56,North,349,0.0,0.0,80,0.00,CLR,,0.00,WeatherDisplay:10.37,2013-04-19 13:40:00,
2013-04-19 08:45:00,31.2,25.4,29.56,NNW,335,0.0,0.0,79,0.00,CLR,,0.00,WeatherDisplay:10.37,2013-04-19 13:45:00,
2013-04-19 08:50:00,31.1,25.0,29.56,NNW,332,0.0,0.0,78,0.00,CLR,,0.00,WeatherDisplay:10.37,2013-04-19 13:50:00,
2013-04-19 08:55:00,31.1,25.0,29.57,NNW,333,0.0,0.0,78,0.00,CLR,,0.00,WeatherDisplay:10.37,2013-04-19 13:55:00,
2013-04-19 09:00:00,30.9,24.6,29.57,NNW,329,0.0,0.0,77,0.00,CLR,,0.00,WeatherDisplay:10.37,2013-04-19 14:00:00,
2013-04-19 09:05:00,30.7,24.1,29.57,NNW,347,0.0,0.0,76,0.00,CLR,,0.00,WeatherDisplay:10.37,2013-04-19 14:05:00,
2013-04-19 09:10:00,30.7,23.8,29.57,North,358,0.0,0.0,75,0.00,CLR,,0.00,WeatherDisplay:10.37,2013-04-19 14:10:00,
2013-04-19 09:15:00,30.7,23.8,29.57,NNW,338,0.0,0.0,75,0.00,CLR,,0.00,WeatherDisplay:10.37,2013-04-19 14:15:00,
2013-04-19 09:20:00,31.3,24.3,29.57,NNW,340,0.0,0.0,75,0.00,CLR,,0.00,WeatherDisplay:10.37,2013-04-19 14:20:00,
2013-04-19 09:25:00,31.3,24.3,29.58,North,355,0.0,0.0,75,0.00,CLR,,0.00,WeatherDisplay:10.37,2013-04-19 14:25:00,
2013-04-19 09:31:00,30.9,23.6,29.58,North,352,0.0,0.0,74,0.00,CLR,,0.00,WeatherDisplay:10.37,2013-04-19 14:31:00,
2013-04-19 09:35:00,30.7,23.4,29.58,NNW,347,0.0,0.0,74,0.00,CLR,,0.00,WeatherDisplay:10.37,2013-04-19 14:35:00,
2013-04-19 09:40:00,30.8,23.8,29.59,NNW,344,0.0,0.0,75,0.00,CLR,,0.00,WeatherDisplay:10.37,2013-04-19 14:40:00,
2013-04-19 09:50:00,31.6,24.3,29.59,NNW,337,0.0,0.0,74,0.00,CLR,,0.00,WeatherDisplay:10.37,2013-04-19 14:50:00,
2013-04-19 09:55:00,31.6,24.0,29.59,NNW,329,0.0,0.0,73,0.00,CLR,,0.00,WeatherDisplay:10.37,2013-04-19 14:55:00,
2013-04-19 10:00:00,31.6,24.3,29.60,NNW,338,0.0,0.0,74,0.00,CLR,,0.00,WeatherDisplay:10.37,2013-04-19 15:00:00,
2013-04-19 10:10:00,32.2,24.5,29.60,North,351,0.0,0.0,73,0.00,CLR,,0.00,WeatherDisplay:10.37,2013-04-19 15:10:00,
2013-04-19 10:15:00,32.2,23.8,29.60,NNW,343,0.0,0.0,71,0.00,CLR,,0.00,WeatherDisplay:10.37,2013-04-19 15:15:00,
2013-04-19 10:20:00,32.2,23.8,29.60,NNW,341,0.0,0.0,71,0.00,CLR,,0.00,WeatherDisplay:10.37,2013-04-19 15:20:00,
2013-04-19 10:25:00,32.7,24.3,29.61,NNW,331,0.0,0.0,71,0.00,CLR,,0.00,WeatherDisplay:10.37,2013-04-19 15:25:00,
2013-04-19 10:30:00,32.8,24.4,29.61,NNW,330,0.0,0.0,71,0.00,CLR,,0.00,WeatherDisplay:10.37,2013-04-19 15:30:00,
2013-04-19 10:35:00,33.1,24.7,29.61,NNW,335,0.0,0.0,71,0.00,CLR,,0.00,WeatherDisplay:10.37,2013-04-19 15:35:00,
2013-04-19 10:40:00,33.1,24.7,29.61,NNW,337,0.0,0.0,71,0.00,CLR,,0.00,WeatherDisplay:10.37,2013-04-19 15:40:00,
2013-04-19 10:45:00,33.1,24.4,29.62,NNW,347,0.0,0.0,70,0.00,CLR,,0.00,WeatherDisplay:10.37,2013-04-19 15:45:00,
2013-04-19 10:50:00,32.9,24.2,29.61,North,1,0.0,0.0,70,0.00,CLR,,0.00,WeatherDisplay:10.37,2013-04-19 15:50:00,
2013-04-19 10:55:00,33.3,24.9,29.62,NNW,346,0.0,0.0,71,0.00,CLR,,0.00,WeatherDisplay:10.37,2013-04-19 15:55:00,
2013-04-19 11:00:00,33.1,24.4,29.62,NNW,340,0.0,0.0,70,0.00,CLR,,0.00,WeatherDisplay:10.37,2013-04-19 16:00:00,
2013-04-19 11:05:00,33.6,24.9,29.62,North,359,0.0,0.0,70,0.00,CLR,,0.00,WeatherDisplay:10.37,2013-04-19 16:05:00,
2013-04-19 11:10:00,33.8,25.4,29.62,North,357,0.0,0.0,71,0.00,CLR,,0.00,WeatherDisplay:10.37,2013-04-19 16:10:00,
2013-04-19 11:15:00,34.3,25.8,29.62,NNW,339,0.0,0.0,71,0.00,CLR,,0.00,WeatherDisplay:10.37,2013-04-19 16:15:00,
2013-04-19 11:20:00,34.3,26.2,29.62,NNW,333,0.0,0.0,72,0.00,CLR,,0.00,WeatherDisplay:10.37,2013-04-19 16:20:00,
2013-04-19 11:25:00,34.3,25.9,29.63,NNW,329,0.0,0.0,71,0.00,CLR,,0.00,WeatherDisplay:10.37,2013-04-19 16:25:00,
2013-04-19 11:30:00,34.6,26.1,29.63,NW,309,0.0,0.0,71,0.00,CLR,,0.00,WeatherDisplay:10.37,2013-04-19 16:30:00,
2013-04-19 11:35:00,34.8,26.4,29.63,NW,315,0.0,0.0,71,0.00,CLR,,0.00,WeatherDisplay:10.37,2013-04-19 16:35:00,
2013-04-19 11:40:00,35.2,26.8,29.64,NNW,344,0.0,0.0,71,0.00,CLR,,0.00,WeatherDisplay:10.37,2013-04-19 16:40:00,
2013-04-19 11:45:00,35.2,26.4,29.64,NNW,329,0.0,0.0,70,0.00,CLR,,0.00,WeatherDisplay:10.37,2013-04-19 16:45:00,
2013-04-19 11:50:00,34.9,26.1,29.63,NW,319,0.0,0.0,70,0.00,CLR,,0.00,WeatherDisplay:10.37,2013-04-19 16:50:00,
2013-04-19 11:55:00,34.9,26.4,29.64,NNW,328,0.0,0.0,71,0.00,CLR,,0.00,WeatherDisplay:10.37,2013-04-19 16:55:00,
2013-04-19 12:00:00,34.5,26.0,29.64,NW,320,0.0,0.0,71,0.00,CLR,,0.00,WeatherDisplay:10.37,2013-04-19 17:00:00,
2013-04-19 12:05:00,34.3,26.2,29.64,NW,322,0.0,0.0,72,0.00,CLR,,0.00,WeatherDisplay:10.37,2013-04-19 17:05:00,
2013-04-19 12:20:00,34.0,26.2,29.62,North,354,7.0,9.0,73,0.00,CLR,,0.00,WeatherDisplay:10.37,2013-04-19 17:20:00,
2013-04-19 12:25:00,34.0,26.2,29.62,North,357,6.0,10.0,73,0.00,CLR,,0.00,WeatherDisplay:10.37,2013-04-19 17:25:00,
2013-04-19 12:30:00,34.0,26.2,29.62,North,352,6.0,13.0,73,0.00,CLR,,0.00,WeatherDisplay:10.37,2013-04-19 17:30:00,
2013-04-19 12:38:00,34.0,26.2,29.62,North,0,8.0,8.7,73,0.00,CLR,,0.00,WeatherDisplay:10.37,2013-04-19 17:38:00,
2013-04-19 12:39:00,34.0,26.2,29.62,North,0,8.0,8.1,73,0.00,CLR,,0.00,WeatherDisplay:10.37,2013-04-19 17:39:00,
2013-04-19 12:40:00,35.2,24.3,29.62,North,0,8.0,8.0,64,0.00,CLR,,0.00,WeatherDisplay:10.37,2013-04-19 17:40:00,
2013-04-19 12:43:00,35.2,24.3,29.62,NNW,338,4.9,11.6,64,0.00,CLR,,0.00,WeatherDisplay:10.37,2013-04-19 17:43:00,
2013-04-19 12:45:00,35.2,24.3,29.62,North,355,6.0,15.0,64,0.00,CLR,,0.00,WeatherDisplay:10.37,2013-04-19 17:45:00,
2013-04-19 12:46:00,35.2,24.3,29.62,NNW,338,4.7,4.7,64,0.00,CLR,,0.00,WeatherDisplay:10.37,2013-04-19 17:46:00,
2013-04-19 12:50:00,35.2,24.3,29.62,NNW,348,7.0,10.0,64,0.00,CLR,,0.00,WeatherDisplay:10.37,2013-04-19 17:50:00,
2013-04-19 12:51:00,35.2,24.3,29.62,NNE,22,4.9,10.4,64,0.00,CLR,,0.00,WeatherDisplay:10.37,2013-04-19 17:51:00,
2013-04-19 12:52:00,35.2,24.3,29.62,NNE,22,5.9,10.4,64,0.00,CLR,,0.00,WeatherDisplay:10.37,2013-04-19 17:52:00,
2013-04-19 12:53:00,35.2,24.3,29.62,NNE,22,5.9,6.0,64,0.00,CLR,,0.00,WeatherDisplay:10.37,2013-04-19 17:53:00,
2013-04-19 12:55:00,35.2,24.3,29.62,North,359,5.0,10.0,64,0.00,CLR,,0.00,WeatherDisplay:10.37,2013-04-19 17:55:00,
2013-04-19 12:58:00,35.2,24.3,29.62,NNW,338,5.5,7.2,64,0.00,CLR,,0.00,WeatherDisplay:10.37,2013-04-19 17:58:00,
2013-04-19 13:00:00,35.2,24.3,29.62,NNW,338,6.5,6.9,64,0.00,CLR,,0.00,WeatherDisplay:10.37,2013-04-19 18:00:00,
2013-04-19 13:01:00,36.1,26.2,29.62,NNE,22,6.4,6.4,67,0.00,CLR,,0.00,WeatherDisplay:10.37,2013-04-19 18:01:00,
2013-04-19 13:04:00,37.4,25.6,29.62,NNE,22,4.9,6.9,62,0.00,CLR,,0.00,WeatherDisplay:10.37,2013-04-19 18:04:00,
2013-04-19 13:06:00,36.9,24.7,29.62,NNW,338,8.5,9.2,61,0.00,CLR,,0.00,WeatherDisplay:10.37,2013-04-19 18:06:00,
2013-04-19 13:07:00,36.9,24.7,29.62,NNW,338,8.5,9.2,61,0.00,CLR,,0.00,WeatherDisplay:10.37,2013-04-19 18:07:00,
2013-04-19 13:08:00,37.0,25.2,29.62,NNW,338,8.5,9.2,62,0.00,CLR,,0.00,WeatherDisplay:10.37,2013-04-19 18:08:00,
2013-04-19 13:15:00,36.9,23.9,29.62,NNW,338,6.0,10.0,59,0.00,CLR,,0.00,WeatherDisplay:10.37,2013-04-19 18:15:00,
2013-04-19 13:20:00,37.3,23.0,29.62,NNW,338,6.0,7.0,56,0.00,CLR,,0.00,WeatherDisplay:10.37,2013-04-19 18:20:00,
2013-04-19 13:25:00,38.8,24.0,29.62,NNW,338,6.0,7.0,55,0.00,CLR,,0.00,WeatherDisplay:10.37,2013-04-19 18:25:00,
2013-04-19 13:30:00,37.9,22.7,29.62,NNW,332,9.0,14.0,54,0.00,CLR,,0.00,WeatherDisplay:10.37,2013-04-19 18:30:00,
2013-04-19 13:35:00,37.0,22.7,29.65,WNW,303,12.0,14.0,56,0.00,CLR,,0.00,WeatherDisplay:10.37,2013-04-19 18:35:00,
2013-04-19 13:40:00,36.5,21.4,29.65,West,280,7.0,14.0,54,0.00,CLR,,0.00,WeatherDisplay:10.37,2013-04-19 18:40:00,
2013-04-19 13:45:00,37.5,22.3,29.65,West,269,3.0,6.0,54,0.00,CLR,,0.00,WeatherDisplay:10.37,2013-04-19 18:45:00,
2013-04-19 13:50:00,37.4,21.4,29.65,North,353,6.0,15.0,52,0.00,CLR,,0.00,WeatherDisplay:10.37,2013-04-19 18:50:00,
2013-04-19 13:55:00,38.7,22.5,29.65,NNE,25,6.0,15.0,52,0.00,CLR,,0.00,WeatherDisplay:10.37,2013-04-19 18:55:00,
2013-04-19 14:00:00,38.5,22.4,29.65,NNE,22,6.0,15.0,52,0.00,CLR,,0.00,WeatherDisplay:10.37,2013-04-19 19:00:00,
2013-04-19 14:05:00,37.0,20.5,29.65,NNE,22,6.0,15.0,51,0.00,CLR,,0.00,WeatherDisplay:10.37,2013-04-19 19:05:00,
2013-04-19 14:11:00,38.5,21.9,29.65,NNE,22,6.0,15.0,51,0.00,CLR,,0.00,WeatherDisplay:10.37,2013-04-19 19:11:00,
2013-04-19 14:20:00,38.1,21.1,29.68,NNE,22,8.0,8.0,50,0.00,CLR,,0.00,WeatherDisplay:10.37,2013-04-19 19:20:00,
2013-04-19 14:30:00,38.4,22.8,29.68,North,359,7.0,9.0,53,0.00,CLR,,0.00,WeatherDisplay:10.37,2013-04-19 19:30:00,
2013-04-19 14:35:00,38.4,21.8,29.68,North,357,7.0,14.0,51,0.00,CLR,,0.00,WeatherDisplay:10.37,2013-04-19 19:35:00,
2013-04-19 14:40:00,38.6,21.6,29.68,North,356,6.0,9.0,50,0.00,CLR,,0.00,WeatherDisplay:10.37,2013-04-19 19:40:00,
2013-04-19 14:45:00,38.4,20.9,29.68,North,358,6.0,8.0,49,0.00,CLR,,0.00,WeatherDisplay:10.37,2013-04-19 19:45:00,
2013-04-19 14:50:00,38.7,21.7,29.68,North,356,5.0,9.0,50,0.00,CLR,,0.00,WeatherDisplay:10.37,2013-04-19 19:50:00,
2013-04-19 14:55:00,38.7,21.1,29.68,North,1,6.0,8.0,49,0.00,CLR,,0.00,WeatherDisplay:10.37,2013-04-19 19:55:00,
2013-04-19 15:00:00,38.3,20.8,29.68,North,1,5.0,12.0,49,0.00,CLR,,0.00,WeatherDisplay:10.37,2013-04-19 20:00:00,
2013-04-19 15:05:00,38.8,21.3,29.68,North,360,7.0,12.0,49,0.00,CLR,,0.00,WeatherDisplay:10.37,2013-04-19 20:05:00,
2013-04-19 15:10:00,38.1,20.6,29.68,North,358,6.0,9.0,49,0.00,CLR,,0.00,WeatherDisplay:10.37,2013-04-19 20:10:00,
2013-04-19 15:15:00,37.7,19.8,29.68,North,6,7.0,13.0,48,0.00,CLR,,0.00,WeatherDisplay:10.37,2013-04-19 20:15:00,
2013-04-19 15:20:00,38.3,20.8,29.68,North,3,6.0,8.0,49,0.00,CLR,,0.00,WeatherDisplay:10.37,2013-04-19 20:20:00,
2013-04-19 15:25:00,39.0,21.5,29.68,North,1,7.0,13.0,49,0.00,CLR,,0.00,WeatherDisplay:10.37,2013-04-19 20:25:00,
2013-04-19 15:30:00,38.8,20.8,29.68,North,349,8.0,19.0,48,0.00,CLR,,0.00,WeatherDisplay:10.37,2013-04-19 20:30:00,
2013-04-19 15:35:00,39.1,21.0,29.71,North,352,5.0,9.0,48,0.00,CLR,,0.00,WeatherDisplay:10.37,2013-04-19 20:35:00,
2013-04-19 15:40:00,38.6,21.0,29.71,North,360,7.0,13.0,49,0.00,CLR,,0.00,WeatherDisplay:10.37,2013-04-19 20:40:00,
2013-04-19 15:45:00,38.1,20.6,29.71,North,354,12.0,16.0,49,0.00,CLR,,0.00,WeatherDisplay:10.37,2013-04-19 20:45:00,
2013-04-19 15:50:00,38.0,20.5,29.71,North,355,7.0,15.0,49,0.00,CLR,,0.00,WeatherDisplay:10.37,2013-04-19 20:50:00,
2013-04-19 15:55:00,38.1,20.6,29.71,North,6,7.0,10.0,49,0.00,CLR,,0.00,WeatherDisplay:10.37,2013-04-19 20:55:00,
2013-04-19 16:00:00,38.4,20.4,29.71,North,357,7.0,10.0,48,0.00,CLR,,0.00,WeatherDisplay:10.37,2013-04-19 21:00:00,
2013-04-19 16:05:00,38.6,21.1,29.71,North,353,6.0,12.0,49,0.00,CLR,,0.00,WeatherDisplay:10.37,2013-04-19 21:05:00,
2013-04-19 16:10:00,37.9,19.4,29.71,North,3,8.0,13.0,47,0.00,CLR,,0.00,WeatherDisplay:10.37,2013-04-19 21:10:00,
2013-04-19 16:15:00,38.6,20.6,29.71,North,9,5.0,8.0,48,0.00,CLR,,0.00,WeatherDisplay:10.37,2013-04-19 21:15:00,
2013-04-19 16:20:00,38.2,19.7,29.71,North,5,5.0,11.0,47,0.00,CLR,,0.00,WeatherDisplay:10.37,2013-04-19 21:20:00,
2013-04-19 16:25:00,37.9,20.5,29.71,North,1,6.0,9.0,49,0.00,CLR,,0.00,WeatherDisplay:10.37,2013-04-19 21:25:00,
2013-04-19 16:30:00,37.0,20.6,29.71,North,350,7.0,18.0,51,0.00,CLR,,0.00,WeatherDisplay:10.37,2013-04-19 21:30:00,
2013-04-19 16:35:00,37.4,20.4,29.74,NNW,345,3.0,10.0,50,0.00,CLR,,0.00,WeatherDisplay:10.37,2013-04-19 21:35:00,
2013-04-19 16:40:00,37.0,19.6,29.74,North,352,7.0,16.0,49,0.00,CLR,,0.00,WeatherDisplay:10.37,2013-04-19 21:40:00,
2013-04-19 16:45:00,37.7,20.3,29.74,North,355,8.0,13.0,49,0.00,CLR,,0.00,WeatherDisplay:10.37,2013-04-19 21:45:00,
2013-04-19 16:50:00,38.3,20.8,29.74,North,5,8.0,12.0,49,0.00,CLR,,0.00,WeatherDisplay:10.37,2013-04-19 21:50:00,
2013-04-19 16:55:00,37.0,20.1,29.74,North,2,7.0,13.0,50,0.00,CLR,,0.00,WeatherDisplay:10.37,2013-04-19 21:55:00,
2013-04-19 17:00:00,36.6,19.2,29.74,North,355,8.0,13.0,49,0.00,CLR,,0.00,WeatherDisplay:10.37,2013-04-19 22:00:00,
2013-04-19 17:05:00,36.9,19.9,29.74,North,350,6.0,9.0,50,0.00,CLR,,0.00,WeatherDisplay:10.37,2013-04-19 22:05:00,
2013-04-19 17:10:00,37.3,19.8,29.74,NNW,348,5.0,7.0,49,0.00,CLR,,0.00,WeatherDisplay:10.37,2013-04-19 22:10:00,
2013-04-19 17:15:00,37.5,19.6,29.74,North,8,6.0,7.0,48,0.00,CLR,,0.00,WeatherDisplay:10.37,2013-04-19 22:15:00,
2013-04-19 17:20:00,37.9,20.0,29.74,NNE,18,5.0,7.0,48,0.00,CLR,,0.00,WeatherDisplay:10.37,2013-04-19 22:20:00,
2013-04-19 17:25:00,37.8,20.3,29.74,North,5,5.0,9.0,49,0.00,CLR,,0.00,WeatherDisplay:10.37,2013-04-19 22:25:00,
2013-04-19 17:30:00,37.5,19.6,29.74,North,1,5.0,9.0,48,0.00,CLR,,0.00,WeatherDisplay:10.37,2013-04-19 22:30:00,
2013-04-19 17:35:00,37.1,19.7,29.77,North,4,3.0,9.0,49,0.00,CLR,,0.00,WeatherDisplay:10.37,2013-04-19 22:35:00,
2013-04-19 17:40:00,37.2,19.8,29.77,North,5,3.0,7.0,49,0.00,CLR,,0.00,WeatherDisplay:10.37,2013-04-19 22:40:00,
2013-04-19 17:45:00,37.4,19.5,29.77,North,9,5.0,7.0,48,0.00,CLR,,0.00,WeatherDisplay:10.37,2013-04-19 22:45:00,
2013-04-19 17:50:00,37.6,19.6,29.77,NNE,15,5.0,9.0,48,0.00,CLR,,0.00,WeatherDisplay:10.37,2013-04-19 22:50:00,
2013-04-19 17:55:00,38.0,19.6,29.77,North,11,3.0,6.0,47,0.00,CLR,,0.00,WeatherDisplay:10.37,2013-04-19 22:55:00,
2013-04-19 18:00:00,38.8,20.3,29.77,North,351,3.0,12.0,47,0.00,CLR,,0.00,WeatherDisplay:10.37,2013-04-19 23:00:00,
2013-04-19 18:05:00,38.7,19.6,29.77,NNW,345,6.0,12.0,46,0.00,CLR,,0.00,WeatherDisplay:10.37,2013-04-19 23:05:00,
2013-04-19 18:10:00,38.1,19.1,29.77,NNW,342,6.0,12.0,46,0.00,CLR,,0.00,WeatherDisplay:10.37,2013-04-19 23:10:00,
2013-04-19 18:15:00,37.9,19.4,29.77,NNW,347,9.0,16.0,47,0.00,CLR,,0.00,WeatherDisplay:10.37,2013-04-19 23:15:00,
2013-04-19 18:20:00,37.9,19.9,29.77,NNW,345,8.0,15.0,48,0.00,CLR,,0.00,WeatherDisplay:10.37,2013-04-19 23:20:00,
2013-04-19 18:25:00,37.5,19.6,29.77,NNW,341,6.0,10.0,48,0.00,CLR,,0.00,WeatherDisplay:10.37,2013-04-19 23:25:00,
2013-04-19 18:30:00,37.4,19.0,29.77,NNW,344,5.0,11.0,47,0.00,CLR,,0.00,WeatherDisplay:10.37,2013-04-19 23:30:00,
2013-04-19 18:35:00,37.4,19.0,29.80,NNW,347,3.0,7.0,47,0.00,CLR,,0.00,WeatherDisplay:10.37,2013-04-19 23:35:00,
2013-04-19 18:40:00,37.0,18.1,29.80,North,358,7.0,12.0,46,0.00,CLR,,0.00,WeatherDisplay:10.37,2013-04-19 23:40:00,
2013-04-19 18:45:00,36.7,17.8,29.80,North,2,3.0,7.0,46,0.00,CLR,,0.00,WeatherDisplay:10.37,2013-04-19 23:45:00,
2013-04-19 18:50:00,36.9,18.0,29.80,North,5,2.0,5.0,46,0.00,CLR,,0.00,WeatherDisplay:10.37,2013-04-19 23:50:00,
2013-04-19 18:55:00,37.0,18.1,29.80,North,356,3.0,6.0,46,0.00,CLR,,0.00,WeatherDisplay:10.37,2013-04-19 23:55:00,
2013-04-19 19:00:00,37.0,17.6,29.80,North,358,2.0,8.0,45,0.00,CLR,,0.00,WeatherDisplay:10.37,2013-04-20 00:00:00,
2013-04-19 19:05:00,37.0,18.1,29.80,North,1,2.0,6.0,46,0.00,CLR,,0.00,WeatherDisplay:10.37,2013-04-20 00:05:00,
2013-04-19 19:10:00,36.1,17.3,29.80,North,9,2.0,5.0,46,0.00,CLR,,0.00,WeatherDisplay:10.37,2013-04-20 00:10:00,
2013-04-19 19:15:00,36.0,17.2,29.80,North,4,1.0,3.0,46,0.00,CLR,,0.00,WeatherDisplay:10.37,2013-04-20 00:15:00,
2013-04-19 19:20:00,36.0,17.7,29.80,North,11,1.0,3.0,47,0.00,CLR,,0.00,WeatherDisplay:10.37,2013-04-20 00:20:00,
2013-04-19 19:25:00,36.0,17.7,29.80,NNE,13,0.0,2.0,47,0.00,CLR,,0.00,WeatherDisplay:10.37,2013-04-20 00:25:00,
2013-04-19 19:30:00,35.8,17.0,29.80,North,9,1.0,3.0,46,0.00,CLR,,0.00,WeatherDisplay:10.37,2013-04-20 00:30:00,
2013-04-19 19:35:00,35.6,16.8,29.83,North,9,2.0,3.0,46,0.00,CLR,,0.00,WeatherDisplay:10.37,2013-04-20 00:35:00,
2013-04-19 19:40:00,35.6,16.8,29.83,North,354,2.0,5.0,46,0.00,CLR,,0.00,WeatherDisplay:10.37,2013-04-20 00:40:00,
2013-04-19 19:45:00,35.3,17.1,29.83,NNW,343,1.0,5.0,47,0.00,CLR,,0.00,WeatherDisplay:10.37,2013-04-20 00:45:00,
2013-04-19 19:50:00,35.2,16.9,29.83,NNW,339,3.0,5.0,47,0.00,CLR,,0.00,WeatherDisplay:10.37,2013-04-20 00:50:00,
2013-04-19 19:55:00,35.1,16.8,29.83,NNW,336,2.0,3.0,47,0.00,CLR,,0.00,WeatherDisplay:10.37,2013-04-20 00:55:00,
2013-04-19 20:00:00,34.9,17.2,29.83,NNW,330,3.0,5.0,48,0.00,CLR,,0.00,WeatherDisplay:10.37,2013-04-20 01:00:00,
2013-04-19 20:05:00,34.6,16.9,29.83,NNW,337,2.0,4.0,48,0.00,CLR,,0.00,WeatherDisplay:10.37,2013-04-20 01:05:00,
2013-04-19 20:10:00,34.5,16.8,29.83,NNW,337,5.0,7.0,48,0.00,CLR,,0.00,WeatherDisplay:10.37,2013-04-20 01:10:00,
2013-04-19 20:15:00,34.5,16.8,29.83,NNW,331,5.0,7.0,48,0.00,CLR,,0.00,WeatherDisplay:10.37,2013-04-20 01:15:00,
2013-04-19 20:20:00,34.2,16.5,29.83,NNW,339,3.0,6.0,48,0.00,CLR,,0.00,WeatherDisplay:10.37,2013-04-20 01:20:00,
2013-04-19 20:25:00,34.0,16.3,29.83,NNW,343,3.0,6.0,48,0.00,CLR,,0.00,WeatherDisplay:10.37,2013-04-20 01:25:00,
2013-04-19 20:30:00,34.3,16.2,29.83,NNW,347,5.0,13.0,47,0.00,CLR,,0.00,WeatherDisplay:10.37,2013-04-20 01:30:00,
2013-04-19 20:35:00,34.2,16.0,29.85,North,350,3.0,9.0,47,0.00,CLR,,0.00,WeatherDisplay:10.37,2013-04-20 01:35:00,
2013-04-19 20:40:00,34.0,16.3,29.85,NNW,347,3.0,7.0,48,0.00,CLR,,0.00,WeatherDisplay:10.37,2013-04-20 01:40:00,
2013-04-19 20:45:00,33.8,15.7,29.85,NNW,342,5.0,8.0,47,0.00,CLR,,0.00,WeatherDisplay:10.37,2013-04-20 01:45:00,
2013-04-19 20:50:00,33.6,15.9,29.85,NNW,332,5.0,6.0,48,0.00,CLR,,0.00,WeatherDisplay:10.37,2013-04-20 01:50:00,
2013-04-19 20:55:00,33.3,15.7,29.85,NNW,337,3.0,7.0,48,0.00,CLR,,0.00,WeatherDisplay:10.37,2013-04-20 01:55:00,
2013-04-19 21:00:00,33.1,15.5,29.85,NNW,343,2.0,6.0,48,0.00,CLR,,0.00,WeatherDisplay:10.37,2013-04-20 02:00:00,
2013-04-19 21:05:00,32.7,15.6,29.85,NNW,344,3.0,6.0,49,0.00,CLR,,0.00,WeatherDisplay:10.37,2013-04-20 02:05:00,
2013-04-19 21:10:00,32.5,15.5,29.85,NNW,345,2.0,6.0,49,0.00,CLR,,0.00,WeatherDisplay:10.37,2013-04-20 02:10:00,
2013-04-19 21:15:00,32.5,15.0,29.85,NNW,333,5.0,7.0,48,0.00,CLR,,0.00,WeatherDisplay:10.37,2013-04-20 02:15:00,
2013-04-19 21:20:00,32.5,15.0,29.85,NNW,332,5.0,7.0,48,0.00,CLR,,0.00,WeatherDisplay:10.37,2013-04-20 02:20:00,
2013-04-19 21:25:00,32.2,14.7,29.85,NNW,333,3.0,5.0,48,0.00,CLR,,0.00,WeatherDisplay:10.37,2013-04-20 02:25:00,
2013-04-19 21:30:00,32.2,14.2,29.85,NW,326,5.0,6.0,47,0.00,CLR,,0.00,WeatherDisplay:10.37,2013-04-20 02:30:00,
2013-04-19 21:35:00,32.2,14.2,29.88,NNW,337,5.0,8.0,47,0.00,CLR,,0.00,WeatherDisplay:10.37,2013-04-20 02:35:00,
2013-04-19 21:40:00,32.0,14.0,29.88,NNW,340,5.0,8.0,47,0.00,CLR,,0.00,WeatherDisplay:10.37,2013-04-20 02:40:00,
2013-04-19 21:45:00,31.8,13.9,29.88,NNW,329,5.0,8.0,47,0.00,CLR,,0.00,WeatherDisplay:10.37,2013-04-20 02:45:00,
2013-04-19 21:50:00,31.8,13.9,29.88,NNW,329,5.0,7.0,47,0.00,CLR,,0.00,WeatherDisplay:10.37,2013-04-20 02:50:00,
2013-04-19 21:55:00,31.5,13.5,29.88,NNW,335,3.0,6.0,47,0.00,CLR,,0.00,WeatherDisplay:10.37,2013-04-20 02:55:00,
2013-04-19 22:00:00,31.2,13.3,29.88,NNW,340,2.0,6.0,47,0.00,CLR,,0.00,WeatherDisplay:10.37,2013-04-20 03:00:00,
2013-04-19 22:05:00,31.1,13.2,29.88,NNW,343,2.0,5.0,47,0.00,CLR,,0.00,WeatherDisplay:10.37,2013-04-20 03:05:00,
2013-04-19 22:10:00,30.9,13.0,29.88,North,352,1.0,5.0,47,0.00,CLR,,0.00,WeatherDisplay:10.37,2013-04-20 03:10:00,
2013-04-19 22:15:00,30.4,12.5,29.88,NNE,16,1.0,2.0,47,0.00,CLR,,0.00,WeatherDisplay:10.37,2013-04-20 03:15:00,
2013-04-19 22:20:00,30.2,12.4,29.88,NNE,28,2.0,2.0,47,0.00,CLR,,0.00,WeatherDisplay:10.37,2013-04-20 03:20:00,
2013-04-19 22:25:00,29.8,12.5,29.88,NNE,25,0.0,2.0,48,0.00,CLR,,0.00,WeatherDisplay:10.37,2013-04-20 03:25:00,
2013-04-19 22:30:00,29.6,12.3,29.88,North,8,1.0,3.0,48,0.00,CLR,,0.00,WeatherDisplay:10.37,2013-04-20 03:30:00,
2013-04-19 22:35:00,29.5,12.2,29.91,NNW,340,1.0,4.0,48,0.00,CLR,,0.00,WeatherDisplay:10.37,2013-04-20 03:35:00,
2013-04-19 22:40:00,29.3,12.0,29.91,NNW,336,1.0,3.0,48,0.00,CLR,,0.00,WeatherDisplay:10.37,2013-04-20 03:40:00,
2013-04-19 22:45:00,29.0,11.8,29.91,North,359,0.0,3.0,48,0.00,CLR,,0.00,WeatherDisplay:10.37,2013-04-20 03:45:00,
2013-04-19 22:50:00,28.8,11.5,29.91,North,10,1.0,2.0,48,0.00,CLR,,0.00,WeatherDisplay:10.37,2013-04-20 03:50:00,
2013-04-19 22:55:00,28.6,11.3,29.91,North,6,1.0,3.0,48,0.00,CLR,,0.00,WeatherDisplay:10.37,2013-04-20 03:55:00,
2013-04-19 23:00:00,28.6,11.3,29.91,North,349,2.0,3.0,48,0.00,CLR,,0.00,WeatherDisplay:10.37,2013-04-20 04:00:00,
2013-04-19 23:05:00,28.6,11.3,29.91,North,354,1.0,5.0,48,0.00,CLR,,0.00,WeatherDisplay:10.37,2013-04-20 04:05:00,
2013-04-19 23:10:00,28.4,11.2,29.91,North,357,2.0,5.0,48,0.00,CLR,,0.00,WeatherDisplay:10.37,2013-04-20 04:10:00,
2013-04-19 23:15:00,28.6,10.9,29.91,NNW,348,3.0,6.0,47,0.00,CLR,,0.00,WeatherDisplay:10.37,2013-04-20 04:15:00,
2013-04-19 23:20:00,28.4,10.7,29.91,NNW,344,2.0,6.0,47,0.00,CLR,,0.00,WeatherDisplay:10.37,2013-04-20 04:20:00,
2013-04-19 23:25:00,28.6,10.4,29.91,North,349,3.0,7.0,46,0.00,CLR,,0.00,WeatherDisplay:10.37,2013-04-20 04:25:00,
2013-04-19 23:30:00,28.4,10.7,29.91,North,352,2.0,5.0,47,0.00,CLR,,0.00,WeatherDisplay:10.37,2013-04-20 04:30:00,
2013-04-19 23:35:00,28.4,10.2,29.91,NNW,341,3.0,5.0,46,0.00,CLR,,0.00,WeatherDisplay:10.37,2013-04-20 04:35:00,
2013-04-19 23:40:00,28.2,10.1,29.91,NNW,339,3.0,5.0,46,0.00,CLR,,0.00,WeatherDisplay:10.37,2013-04-20 04:40:00,
2013-04-19 23:45:00,28.0,9.9,29.91,North,349,2.0,5.0,46,0.00,CLR,,0.00,WeatherDisplay:10.37,2013-04-20 04:45:00,
2013-04-19 23:50:00,27.9,9.7,29.91,NNW,346,3.0,5.0,46,0.00,CLR,,0.00,WeatherDisplay:10.37,2013-04-20 04:50:00,
2013-04-19 23:55:00,27.7,9.6,29.91,NNW,337,2.0,4.0,46,0.00,CLR,,0.00,WeatherDisplay:10.37,2013-04-20 04:55:00,